CZ-6A DEB, 60699

Orbit data source: Space-Track

CZ-6A DEB, 60699 is space debris in LEO originally from a launch on Tue, 06 Aug 2024 UTC launched from the Taiyaun Space Center, China (TSC). Debris objects in space refer to the collection of defunct objects orbiting the Earth. Examples of debris include non-operational satellites, rocket bodies, and fragments generated from explosions, collisions, or faulty payload assembly.

Loading next visibility...
Identifier
60699, 2024-140DC
Orbit
LEO
Country
Flag of CNCN / PRC
Related business
Manufacturer
SAST
Mission
Spacecraft
Bus & Motor
Unknown
Mass
Unknown
Launch date (UTC)
2024-08-06 (2 years ago)
Launch vehicle
Unknown
Launch site
Taiyaun Space Center, China (TSC)
Object type
Payload
Rocket body
Debris
Shape & HBR
Unknown shape, 0.2 m
Radar Cross Section
Medium (>0.1 m² and <1 m²)

Expand to show TLE details & history
Last TLE update: 15 hours ago

TLE from 15 hours ago
0 CZ-6A DEB
1 60699U 24140DC  26171.21169508  .00001329  00000-0  62846-3 0  9994
2 60699  88.7003 250.7254 0068574 157.1870 203.2392 14.17891950 95844
Epoch: 2026-06-20T05:04Z
TLE epoch observation values (Epoch: 2026-06-20T05:04:50.454Z)
Latitude
0.00001°
Longitude
-93.91439°
Altitude
881.036 km
Speed
7.388 km/s
True Right ascension
16h 42m 54s
True Declination
0° 00' 00"
Sunlit
Object was in full shadow at epoch
Visualization orbit readout
Latitude
Unknown
Longitude
Unknown
Altitude
Unknown
Speed
Unknown
Apparent Right ascension
Unknown
Apparent Declination
Unknown
Sunlit
N/A
Visualization observer readout
Local Sidereal Time
07:20:53
Azimuth
Unknown
Elevation
Unknown
Doppler factor
Unknown
Orbital elements
Apogee altitude
878.872 km
Perigee altitude
780.022 km
Semi-major axis
7,207.584 km
Eccentricity
0.00686
Inclination
88.7003°
RAAN
250.7254°
Arg. of periapsis
157.187°
True anomaly
202.93157°
Mean anomaly
203.2392°
Eccentric anomaly
203.08514°
Mean motion
3.54698 °/min
Orbital period
101.49 mins
BSTAR
0.00062846
Loading maneuver chart data...
Computing Atmospheric mass density...
Loading historical data...
Loading historical data...
Loading historical data...
Loading historical data...
Loading historical data...
Loading historical data...
Loading historical data...

Documentation

Showing up to 5 results
|